Location: Maiden
(35.5760°N, 81.2120°W)
Time: 03:40:57
(UTC-04:00)

Vanguard 2 - Pass Details

Date: 11 August 2020
Orbit: 553 x 2937 km, 32.9° (Epoch: 20 September)

Event Time Altitude Azimuth Distance (km) Brightness Sun altitude
Rises 02:28:52 0° 281° (W) 5,843 12.0 -37.4°
Reaches altitude 10° 02:33:27 10° 277° (W) 4,460 11.3 -37.1°
Enters shadow 02:35:15 15° 274° (W) 3,907 10.9 -37.0°
Maximum altitude 02:44:03 47° 208° (SSW) 1,735 - -36.4°
Drops below altitude 10° 02:50:30 10° 136° (SE) 2,743 - -35.9°
Sets 02:52:42 0° 129° (SE) 3,465 - -35.7°
